owner,sensor,date,latitude,longitude,air_pressure(mBar),qcFlag 
COMPS,ioos:station:USF.COMPS:C10:1,2019-02-01T03:05:00Z,27.1690,-82.9260,1023.71,1111122 
COMPS,ioos:station:USF.COMPS:C10:1,2019-02-01T03:35:00Z,27.1690,-82.9260,1023.7,1111122 
COMPS,ioos:station:USF.COMPS:C10:1,2019-02-01T06:05:00Z,27.1690,-82.9260,1022.58,1111122 
COMPS,ioos:station:USF.COMPS:C10:1,2019-02-01T06:35:00Z,27.1690,-82.9260,1022.39,1111122 
COMPS,ioos:station:USF.COMPS:C10:1,2019-02-01T07:05:00Z,27.1690,-82.9260,1022.17,1111122 
COMPS,ioos:station:USF.COMPS:C10:1,2019-02-01T07:35:00Z,27.1690,-82.9260,1021.86,1111122 
COMPS,ioos:station:USF.COMPS:C10:1,2019-02-01T09:05:00Z,27.1690,-82.9260,1021.53,1111122 
COMPS,ioos:station:USF.COMPS:C10:1,2019-02-01T09:35:00Z,27.1690,-82.9260,1021.65,1111122 
COMPS,ioos:station:USF.COMPS:C10:1,2019-02-01T10:05:00Z,27.1690,-82.9260,1021.51,1111122 
COMPS,ioos:station:USF.COMPS:C10:1,2019-02-01T10:35:00Z,27.1690,-82.9260,1021.75,1111122 
COMPS,ioos:station:USF.COMPS:C10:1,2019-02-01T11:05:00Z,27.1690,-82.9260,1022.15,1111122 
COMPS,ioos:station:USF.COMPS:C10:1,2019-02-01T11:35:00Z,27.1690,-82.9260,1022.5,1111122 
COMPS,ioos:station:USF.COMPS:C10:1,2019-02-01T12:05:00Z,27.1690,-82.9260,1022.65,1111122 
COMPS,ioos:station:USF.COMPS:C10:1,2019-02-01T12:35:00Z,27.1690,-82.9260,1022.79,1111122 
COMPS,ioos:station:USF.COMPS:C10:1,2019-02-01T13:05:00Z,27.1690,-82.9260,1022.92,1111122 
COMPS,ioos:station:USF.COMPS:C10:1,2019-02-01T13:35:00Z,27.1690,-82.9260,1023.05,1111122 
COMPS,ioos:station:USF.COMPS:C10:1,2019-02-01T16:05:00Z,27.1690,-82.9260,1023.52,1111122 
COMPS,ioos:station:USF.COMPS:C10:1,2019-02-01T16:35:00Z,27.1690,-82.9260,1023.37,1111122 
COMPS,ioos:station:USF.COMPS:C10:1,2019-02-01T17:05:00Z,27.1690,-82.9260,1023.07,1111122 
COMPS,ioos:station:USF.COMPS:C10:1,2019-02-01T17:35:00Z,27.1690,-82.9260,1022.65,1111122 
COMPS,ioos:station:USF.COMPS:C10:1,2019-02-01T19:05:00Z,27.1690,-82.9260,1021.06,1111122 
COMPS,ioos:station:USF.COMPS:C10:1,2019-02-01T19:35:00Z,27.1690,-82.9260,1020.76,1111122 
COMPS,ioos:station:USF.COMPS:C10:1,2019-02-01T20:05:00Z,27.1690,-82.9260,1020.46,1111122 
COMPS,ioos:station:USF.COMPS:C10:1,2019-02-01T20:35:00Z,27.1690,-82.9260,1020.34,1111122 
COMPS,ioos:station:USF.COMPS:C10:1,2019-02-01T21:05:00Z,27.1690,-82.9260,1020.33,1111122 
COMPS,ioos:station:USF.COMPS:C10:1,2019-02-01T21:35:00Z,27.1690,-82.9260,1020.37,1111122 
COMPS,ioos:station:USF.COMPS:C10:1,2019-02-01T22:05:00Z,27.1690,-82.9260,1020.57,1111122 
COMPS,ioos:station:USF.COMPS:C10:1,2019-02-01T22:35:00Z,27.1690,-82.9260,1020.88,1111122 
COMPS,ioos:station:USF.COMPS:C10:1,2019-02-01T23:05:00Z,27.1690,-82.9260,1020.86,1111122 
COMPS,ioos:station:USF.COMPS:C10:1,2019-02-01T23:35:00Z,27.1690,-82.9260,1020.91,1111122 
COMPS,ioos:station:USF.COMPS:C10:1,2019-02-02T00:05:00Z,27.1690,-82.9260,1020.92,1111122 
COMPS,ioos:station:USF.COMPS:C10:1,2019-02-02T00:35:00Z,27.1690,-82.9260,1021.22,1111122 
COMPS,ioos:station:USF.COMPS:C10:1,2019-02-02T02:05:00Z,27.1690,-82.9260,1021.27,1111122 
COMPS,ioos:station:USF.COMPS:C10:1,2019-02-02T02:35:00Z,27.1690,-82.9260,1021.15,1111122 
COMPS,ioos:station:USF.COMPS:C10:1,2019-02-02T03:05:00Z,27.1690,-82.9260,1021.25,1111122 
COMPS,ioos:station:USF.COMPS:C10:1,2019-02-02T03:35:00Z,27.1690,-82.9260,1021.2,1111122 
COMPS,ioos:station:USF.COMPS:C10:1,2019-02-02T05:05:00Z,27.1690,-82.9260,1021.26,1111122 
COMPS,ioos:station:USF.COMPS:C10:1,2019-02-02T05:35:00Z,27.1690,-82.9260,1021.3,1111122 
COMPS,ioos:station:USF.COMPS:C10:1,2019-02-02T06:05:00Z,27.1690,-82.9260,1020.95,1111122 
COMPS,ioos:station:USF.COMPS:C10:1,2019-02-02T06:35:00Z,27.1690,-82.9260,1020.85,1111122 
COMPS,ioos:station:USF.COMPS:C10:1,2019-02-02T07:05:00Z,27.1690,-82.9260,1020.73,1111122 
COMPS,ioos:station:USF.COMPS:C10:1,2019-02-02T07:35:00Z,27.1690,-82.9260,1020.27,1111122 
COMPS,ioos:station:USF.COMPS:C10:1,2019-02-02T08:05:00Z,27.1690,-82.9260,1019.98,1111122 
COMPS,ioos:station:USF.COMPS:C10:1,2019-02-02T08:35:00Z,27.1690,-82.9260,1020.0,1111122 
COMPS,ioos:station:USF.COMPS:C10:1,2019-02-02T09:05:00Z,27.1690,-82.9260,1020.19,1111122 
COMPS,ioos:station:USF.COMPS:C10:1,2019-02-02T09:35:00Z,27.1690,-82.9260,1020.01,1111122 
COMPS,ioos:station:USF.COMPS:C10:1,2019-02-02T10:05:00Z,27.1690,-82.9260,1020.02,1111122 
COMPS,ioos:station:USF.COMPS:C10:1,2019-02-02T10:35:00Z,27.1690,-82.9260,1019.94,1111122 
COMPS,ioos:station:USF.COMPS:C10:1,2019-02-02T11:05:00Z,27.1690,-82.9260,1019.81,1111122 
COMPS,ioos:station:USF.COMPS:C10:1,2019-02-02T11:35:00Z,27.1690,-82.9260,1020.03,1111122 
COMPS,ioos:station:USF.COMPS:C10:1,2019-02-02T12:05:00Z,27.1690,-82.9260,1019.91,1111122 
COMPS,ioos:station:USF.COMPS:C10:1,2019-02-02T12:35:00Z,27.1690,-82.9260,1019.88,1111122 
COMPS,ioos:station:USF.COMPS:C10:1,2019-02-02T13:05:00Z,27.1690,-82.9260,1020.09,1111122 
COMPS,ioos:station:USF.COMPS:C10:1,2019-02-02T13:35:00Z,27.1690,-82.9260,1020.24,1111122 
COMPS,ioos:station:USF.COMPS:C10:1,2019-02-02T14:05:00Z,27.1690,-82.9260,1020.29,1111122 
COMPS,ioos:station:USF.COMPS:C10:1,2019-02-02T14:35:00Z,27.1690,-82.9260,1020.36,1111122 
COMPS,ioos:station:USF.COMPS:C10:1,2019-02-02T15:05:00Z,27.1690,-82.9260,1020.7,1111122 
COMPS,ioos:station:USF.COMPS:C10:1,2019-02-02T15:35:00Z,27.1690,-82.9260,1020.98,1111122 
COMPS,ioos:station:USF.COMPS:C10:1,2019-02-02T16:05:00Z,27.1690,-82.9260,1021.03,1111122 
COMPS,ioos:station:USF.COMPS:C10:1,2019-02-02T16:35:00Z,27.1690,-82.9260,1020.8,1111122 
COMPS,ioos:station:USF.COMPS:C10:1,2019-02-02T17:05:00Z,27.1690,-82.9260,1020.38,1111122 
COMPS,ioos:station:USF.COMPS:C10:1,2019-02-02T17:35:00Z,27.1690,-82.9260,1020.09,1111122 
COMPS,ioos:station:USF.COMPS:C10:1,2019-02-02T18:05:00Z,27.1690,-82.9260,1019.65,1111122 
COMPS,ioos:station:USF.COMPS:C10:1,2019-02-02T18:35:00Z,27.1690,-82.9260,1018.9,1111122 
COMPS,ioos:station:USF.COMPS:C10:1,2019-02-02T19:05:00Z,27.1690,-82.9260,1018.53,1111122 
COMPS,ioos:station:USF.COMPS:C10:1,2019-02-02T19:35:00Z,27.1690,-82.9260,1018.24,1111122 
COMPS,ioos:station:USF.COMPS:C10:1,2019-02-02T20:05:00Z,27.1690,-82.9260,1018.0,1111122 
COMPS,ioos:station:USF.COMPS:C10:1,2019-02-02T20:35:00Z,27.1690,-82.9260,1017.59,1111122 
COMPS,ioos:station:USF.COMPS:C10:1,2019-02-02T21:05:00Z,27.1690,-82.9260,1017.51,1111122 
COMPS,ioos:station:USF.COMPS:C10:1,2019-02-02T21:35:00Z,27.1690,-82.9260,1017.38,1111122 
COMPS,ioos:station:USF.COMPS:C10:1,2019-02-02T22:05:00Z,27.1690,-82.9260,1017.43,1111122 
COMPS,ioos:station:USF.COMPS:C10:1,2019-02-02T22:35:00Z,27.1690,-82.9260,1017.12,1111122 
COMPS,ioos:station:USF.COMPS:C10:1,2019-02-02T23:05:00Z,27.1690,-82.9260,1017.09,1111122 
COMPS,ioos:station:USF.COMPS:C10:1,2019-02-02T23:35:00Z,27.1690,-82.9260,1017.24,1111122 
COMPS,ioos:station:USF.COMPS:C10:1,2019-02-03T00:05:00Z,27.1690,-82.9260,1017.15,1111122 
COMPS,ioos:station:USF.COMPS:C10:1,2019-02-03T00:35:00Z,27.1690,-82.9260,1017.48,1111122 
COMPS,ioos:station:USF.COMPS:C10:1,2019-02-03T01:05:00Z,27.1690,-82.9260,1017.75,1111122 
COMPS,ioos:station:USF.COMPS:C10:1,2019-02-03T01:35:00Z,27.1690,-82.9260,1017.96,1111122 
COMPS,ioos:station:USF.COMPS:C10:1,2019-02-03T02:05:00Z,27.1690,-82.9260,1018.15,1111122 
COMPS,ioos:station:USF.COMPS:C10:1,2019-02-03T02:35:00Z,27.1690,-82.9260,1018.36,1111122 
COMPS,ioos:station:USF.COMPS:C10:1,2019-02-03T03:05:00Z,27.1690,-82.9260,1018.24,1111122 
COMPS,ioos:station:USF.COMPS:C10:1,2019-02-03T03:35:00Z,27.1690,-82.9260,1018.05,1111122 
COMPS,ioos:station:USF.COMPS:C10:1,2019-02-03T04:05:00Z,27.1690,-82.9260,1018.14,1111122 
COMPS,ioos:station:USF.COMPS:C10:1,2019-02-03T04:35:00Z,27.1690,-82.9260,1018.1,1111122 
COMPS,ioos:station:USF.COMPS:C10:1,2019-02-03T05:05:00Z,27.1690,-82.9260,1017.92,1111122 
COMPS,ioos:station:USF.COMPS:C10:1,2019-02-03T05:35:00Z,27.1690,-82.9260,1017.61,1111122 
COMPS,ioos:station:USF.COMPS:C10:1,2019-02-03T06:05:00Z,27.1690,-82.9260,1017.26,1111122 
COMPS,ioos:station:USF.COMPS:C10:1,2019-02-03T06:35:00Z,27.1690,-82.9260,1017.23,1111122 
COMPS,ioos:station:USF.COMPS:C10:1,2019-02-03T07:05:00Z,27.1690,-82.9260,1017.07,1111122 
COMPS,ioos:station:USF.COMPS:C10:1,2019-02-03T07:35:00Z,27.1690,-82.9260,1016.74,1111122 
COMPS,ioos:station:USF.COMPS:C10:1,2019-02-03T08:05:00Z,27.1690,-82.9260,1016.42,1111122 
COMPS,ioos:station:USF.COMPS:C10:1,2019-02-03T08:35:00Z,27.1690,-82.9260,1016.34,1111122 
COMPS,ioos:station:USF.COMPS:C10:1,2019-02-03T09:05:00Z,27.1690,-82.9260,1016.36,1111122 
COMPS,ioos:station:USF.COMPS:C10:1,2019-02-03T09:35:00Z,27.1690,-82.9260,1016.23,1111122 
COMPS,ioos:station:USF.COMPS:C10:1,2019-02-03T10:05:00Z,27.1690,-82.9260,1016.07,1111122 
COMPS,ioos:station:USF.COMPS:C10:1,2019-02-03T10:35:00Z,27.1690,-82.9260,1015.96,1111122 
COMPS,ioos:station:USF.COMPS:C10:1,2019-02-03T11:05:00Z,27.1690,-82.9260,1016.21,1111122 
COMPS,ioos:station:USF.COMPS:C10:1,2019-02-03T11:35:00Z,27.1690,-82.9260,1016.53,1111122 
COMPS,ioos:station:USF.COMPS:C10:1,2019-02-03T12:05:00Z,27.1690,-82.9260,1016.73,1111122 
COMPS,ioos:station:USF.COMPS:C10:1,2019-02-03T12:35:00Z,27.1690,-82.9260,1016.84,1111122 
COMPS,ioos:station:USF.COMPS:C10:1,2019-02-03T13:05:00Z,27.1690,-82.9260,1017.01,1111122 
COMPS,ioos:station:USF.COMPS:C10:1,2019-02-03T13:35:00Z,27.1690,-82.9260,1017.06,1111122 
COMPS,ioos:station:USF.COMPS:C10:1,2019-02-03T14:05:00Z,27.1690,-82.9260,1017.26,1111122 
COMPS,ioos:station:USF.COMPS:C10:1,2019-02-03T14:35:00Z,27.1690,-82.9260,1017.71,1111122 
COMPS,ioos:station:USF.COMPS:C10:1,2019-02-03T15:05:00Z,27.1690,-82.9260,1017.96,1111122 
COMPS,ioos:station:USF.COMPS:C10:1,2019-02-03T15:35:00Z,27.1690,-82.9260,1018.03,1111122 
COMPS,ioos:station:USF.COMPS:C10:1,2019-02-03T16:05:00Z,27.1690,-82.9260,1017.82,1111122 
COMPS,ioos:station:USF.COMPS:C10:1,2019-02-03T16:35:00Z,27.1690,-82.9260,1017.6,1111122 
COMPS,ioos:station:USF.COMPS:C10:1,2019-02-03T17:05:00Z,27.1690,-82.9260,1017.31,1111122 
COMPS,ioos:station:USF.COMPS:C10:1,2019-02-03T17:35:00Z,27.1690,-82.9260,1017.28,1111122 
COMPS,ioos:station:USF.COMPS:C10:1,2019-02-03T18:05:00Z,27.1690,-82.9260,1016.85,1111122 
COMPS,ioos:station:USF.COMPS:C10:1,2019-02-03T18:35:00Z,27.1690,-82.9260,1016.36,1111122 
COMPS,ioos:station:USF.COMPS:C10:1,2019-02-03T19:05:00Z,27.1690,-82.9260,1015.9,1111122 
COMPS,ioos:station:USF.COMPS:C10:1,2019-02-03T19:35:00Z,27.1690,-82.9260,1015.81,1111122 
COMPS,ioos:station:USF.COMPS:C10:1,2019-02-03T20:05:00Z,27.1690,-82.9260,1015.89,1111122 
COMPS,ioos:station:USF.COMPS:C10:1,2019-02-03T20:35:00Z,27.1690,-82.9260,1015.86,1111122 
COMPS,ioos:station:USF.COMPS:C10:1,2019-02-03T22:05:00Z,27.1690,-82.9260,1015.58,1111122 
COMPS,ioos:station:USF.COMPS:C10:1,2019-02-03T22:35:00Z,27.1690,-82.9260,1015.57,1111122 
COMPS,ioos:station:USF.COMPS:C10:1,2019-02-03T23:05:00Z,27.1690,-82.9260,1015.54,1111122 
COMPS,ioos:station:USF.COMPS:C10:1,2019-02-03T23:35:00Z,27.1690,-82.9260,1015.82,1111122 
COMPS,ioos:station:USF.COMPS:C10:1,2019-02-04T00:05:00Z,27.1690,-82.9260,1016.0,1111122 
COMPS,ioos:station:USF.COMPS:C10:1,2019-02-04T00:35:00Z,27.1690,-82.9260,1016.11,1111122 
COMPS,ioos:station:USF.COMPS:C10:1,2019-02-04T01:05:00Z,27.1690,-82.9260,1016.13,1111122 
COMPS,ioos:station:USF.COMPS:C10:1,2019-02-04T01:35:00Z,27.1690,-82.9260,1016.42,1111122 
COMPS,ioos:station:USF.COMPS:C10:1,2019-02-04T02:05:00Z,27.1690,-82.9260,1016.62,1111122 
COMPS,ioos:station:USF.COMPS:C10:1,2019-02-04T02:35:00Z,27.1690,-82.9260,1016.82,1111122 
COMPS,ioos:station:USF.COMPS:C10:1,2019-02-04T03:05:00Z,27.1690,-82.9260,1016.89,1111122 
COMPS,ioos:station:USF.COMPS:C10:1,2019-02-04T03:35:00Z,27.1690,-82.9260,1016.92,1111122 
COMPS,ioos:station:USF.COMPS:C10:1,2019-02-04T04:05:00Z,27.1690,-82.9260,1017.03,1111122 
COMPS,ioos:station:USF.COMPS:C10:1,2019-02-04T04:35:00Z,27.1690,-82.9260,1017.11,1111122 
COMPS,ioos:station:USF.COMPS:C10:1,2019-02-04T05:05:00Z,27.1690,-82.9260,1016.85,1111122 
COMPS,ioos:station:USF.COMPS:C10:1,2019-02-04T05:35:00Z,27.1690,-82.9260,1016.7,1111122 
COMPS,ioos:station:USF.COMPS:C10:1,2019-02-04T06:05:00Z,27.1690,-82.9260,1016.6,1111122 
COMPS,ioos:station:USF.COMPS:C10:1,2019-02-04T06:35:00Z,27.1690,-82.9260,1016.63,1111122 
COMPS,ioos:station:USF.COMPS:C10:1,2019-02-04T07:05:00Z,27.1690,-82.9260,1016.38,1111122 
COMPS,ioos:station:USF.COMPS:C10:1,2019-02-04T07:35:00Z,27.1690,-82.9260,1016.23,1111122 
COMPS,ioos:station:USF.COMPS:C10:1,2019-02-04T08:05:00Z,27.1690,-82.9260,1016.02,1111122 
COMPS,ioos:station:USF.COMPS:C10:1,2019-02-04T08:35:00Z,27.1690,-82.9260,1016.01,1111122 
COMPS,ioos:station:USF.COMPS:C10:1,2019-02-04T09:05:00Z,27.1690,-82.9260,1016.13,1111122 
COMPS,ioos:station:USF.COMPS:C10:1,2019-02-04T09:35:00Z,27.1690,-82.9260,1016.31,1111122 
COMPS,ioos:station:USF.COMPS:C10:1,2019-02-04T10:05:00Z,27.1690,-82.9260,1016.55,1111122 
COMPS,ioos:station:USF.COMPS:C10:1,2019-02-04T10:35:00Z,27.1690,-82.9260,1016.63,1111122 
COMPS,ioos:station:USF.COMPS:C10:1,2019-02-04T11:05:00Z,27.1690,-82.9260,1016.96,1111122 
COMPS,ioos:station:USF.COMPS:C10:1,2019-02-04T11:35:00Z,27.1690,-82.9260,1017.1,1111122 
COMPS,ioos:station:USF.COMPS:C10:1,2019-02-04T12:05:00Z,27.1690,-82.9260,1017.45,1111122 
COMPS,ioos:station:USF.COMPS:C10:1,2019-02-04T12:35:00Z,27.1690,-82.9260,1017.58,1111122 
COMPS,ioos:station:USF.COMPS:C10:1,2019-02-04T13:05:00Z,27.1690,-82.9260,1017.99,1111122 
COMPS,ioos:station:USF.COMPS:C10:1,2019-02-04T13:35:00Z,27.1690,-82.9260,1018.11,1111122 
COMPS,ioos:station:USF.COMPS:C10:1,2019-02-04T14:05:00Z,27.1690,-82.9260,1018.41,1111122 
COMPS,ioos:station:USF.COMPS:C10:1,2019-02-04T14:35:00Z,27.1690,-82.9260,1018.86,1111122 
COMPS,ioos:station:USF.COMPS:C10:1,2019-02-04T15:05:00Z,27.1690,-82.9260,1018.91,1111122 
COMPS,ioos:station:USF.COMPS:C10:1,2019-02-04T15:35:00Z,27.1690,-82.9260,1019.18,1111122 
COMPS,ioos:station:USF.COMPS:C10:1,2019-02-04T16:05:00Z,27.1690,-82.9260,1019.2,1111122 
COMPS,ioos:station:USF.COMPS:C10:1,2019-02-04T16:35:00Z,27.1690,-82.9260,1019.09,1111122 
COMPS,ioos:station:USF.COMPS:C10:1,2019-02-04T17:05:00Z,27.1690,-82.9260,1018.62,1111122 
COMPS,ioos:station:USF.COMPS:C10:1,2019-02-04T17:35:00Z,27.1690,-82.9260,1018.39,1111122 
COMPS,ioos:station:USF.COMPS:C10:1,2019-02-04T18:05:00Z,27.1690,-82.9260,1017.93,1111122 
COMPS,ioos:station:USF.COMPS:C10:1,2019-02-04T18:35:00Z,27.1690,-82.9260,1017.44,1111122 
COMPS,ioos:station:USF.COMPS:C10:1,2019-02-04T19:05:00Z,27.1690,-82.9260,1017.26,1111122 
COMPS,ioos:station:USF.COMPS:C10:1,2019-02-04T19:35:00Z,27.1690,-82.9260,1017.27,1111122 
COMPS,ioos:station:USF.COMPS:C10:1,2019-02-04T20:05:00Z,27.1690,-82.9260,1017.15,1111122 
COMPS,ioos:station:USF.COMPS:C10:1,2019-02-04T20:35:00Z,27.1690,-82.9260,1017.03,1111122 
COMPS,ioos:station:USF.COMPS:C10:1,2019-02-04T21:05:00Z,27.1690,-82.9260,1017.09,1111122 
COMPS,ioos:station:USF.COMPS:C10:1,2019-02-04T21:35:00Z,27.1690,-82.9260,1016.93,1111122 
COMPS,ioos:station:USF.COMPS:C10:1,2019-02-04T22:05:00Z,27.1690,-82.9260,1017.21,1111122 
COMPS,ioos:station:USF.COMPS:C10:1,2019-02-04T22:35:00Z,27.1690,-82.9260,1017.23,1111122 
COMPS,ioos:station:USF.COMPS:C10:1,2019-02-04T23:05:00Z,27.1690,-82.9260,1017.13,1111122 
COMPS,ioos:station:USF.COMPS:C10:1,2019-02-04T23:35:00Z,27.1690,-82.9260,1017.44,1111122 
COMPS,ioos:station:USF.COMPS:C10:1,2019-02-05T00:05:00Z,27.1690,-82.9260,1017.78,1111122 
COMPS,ioos:station:USF.COMPS:C10:1,2019-02-05T00:35:00Z,27.1690,-82.9260,1017.77,1111122 
COMPS,ioos:station:USF.COMPS:C10:1,2019-02-05T01:05:00Z,27.1690,-82.9260,1017.63,1111122 
COMPS,ioos:station:USF.COMPS:C10:1,2019-02-05T01:35:00Z,27.1690,-82.9260,1017.76,1111122 
COMPS,ioos:station:USF.COMPS:C10:1,2019-02-05T02:05:00Z,27.1690,-82.9260,1017.76,1111122 
COMPS,ioos:station:USF.COMPS:C10:1,2019-02-05T02:35:00Z,27.1690,-82.9260,1018.11,1111122 
COMPS,ioos:station:USF.COMPS:C10:1,2019-02-05T03:05:00Z,27.1690,-82.9260,1018.28,1111122 
COMPS,ioos:station:USF.COMPS:C10:1,2019-02-05T03:35:00Z,27.1690,-82.9260,1018.51,1111122 
COMPS,ioos:station:USF.COMPS:C10:1,2019-02-05T04:05:00Z,27.1690,-82.9260,1018.57,1111122 
COMPS,ioos:station:USF.COMPS:C10:1,2019-02-05T04:35:00Z,27.1690,-82.9260,1018.55,1111122 
COMPS,ioos:station:USF.COMPS:C10:1,2019-02-05T05:05:00Z,27.1690,-82.9260,1018.41,1111122 
COMPS,ioos:station:USF.COMPS:C10:1,2019-02-05T05:35:00Z,27.1690,-82.9260,1018.08,1111122 
COMPS,ioos:station:USF.COMPS:C10:1,2019-02-05T06:05:00Z,27.1690,-82.9260,1018.27,1111122 
COMPS,ioos:station:USF.COMPS:C10:1,2019-02-05T06:35:00Z,27.1690,-82.9260,1018.11,1111122 
COMPS,ioos:station:USF.COMPS:C10:1,2019-02-05T07:05:00Z,27.1690,-82.9260,1017.87,1111122 
COMPS,ioos:station:USF.COMPS:C10:1,2019-02-05T07:35:00Z,27.1690,-82.9260,1017.88,1111122 
COMPS,ioos:station:USF.COMPS:C10:1,2019-02-05T08:05:00Z,27.1690,-82.9260,1017.77,1111122 
COMPS,ioos:station:USF.COMPS:C10:1,2019-02-05T08:35:00Z,27.1690,-82.9260,1017.52,1111122 
COMPS,ioos:station:USF.COMPS:C10:1,2019-02-05T09:05:00Z,27.1690,-82.9260,1017.6,1111122 
COMPS,ioos:station:USF.COMPS:C10:1,2019-02-05T09:35:00Z,27.1690,-82.9260,1017.46,1111122 
COMPS,ioos:station:USF.COMPS:C10:1,2019-02-05T10:05:00Z,27.1690,-82.9260,1017.59,1111122 
COMPS,ioos:station:USF.COMPS:C10:1,2019-02-05T10:35:00Z,27.1690,-82.9260,1017.97,1111122 
COMPS,ioos:station:USF.COMPS:C10:1,2019-02-05T11:05:00Z,27.1690,-82.9260,1018.2,1111122 
COMPS,ioos:station:USF.COMPS:C10:1,2019-02-05T11:35:00Z,27.1690,-82.9260,1018.61,1111122 
COMPS,ioos:station:USF.COMPS:C10:1,2019-02-05T12:05:00Z,27.1690,-82.9260,1019.0,1111122 
COMPS,ioos:station:USF.COMPS:C10:1,2019-02-05T12:35:00Z,27.1690,-82.9260,1019.16,1111122 
COMPS,ioos:station:USF.COMPS:C10:1,2019-02-05T13:05:00Z,27.1690,-82.9260,1019.62,1111122 
COMPS,ioos:station:USF.COMPS:C10:1,2019-02-05T13:35:00Z,27.1690,-82.9260,1020.08,1111122 
COMPS,ioos:station:USF.COMPS:C10:1,2019-02-05T14:05:00Z,27.1690,-82.9260,1020.76,1111122 
COMPS,ioos:station:USF.COMPS:C10:1,2019-02-05T14:35:00Z,27.1690,-82.9260,1021.12,1111122 
COMPS,ioos:station:USF.COMPS:C10:1,2019-02-05T15:05:00Z,27.1690,-82.9260,1021.42,1111122 
COMPS,ioos:station:USF.COMPS:C10:1,2019-02-05T15:35:00Z,27.1690,-82.9260,1021.31,1111122 
COMPS,ioos:station:USF.COMPS:C10:1,2019-02-05T18:05:00Z,27.1690,-82.9260,1020.63,1111122 
COMPS,ioos:station:USF.COMPS:C10:1,2019-02-05T18:35:00Z,27.1690,-82.9260,1020.25,1111122 
COMPS,ioos:station:USF.COMPS:C10:1,2019-02-05T19:05:00Z,27.1690,-82.9260,1019.83,1111122 
COMPS,ioos:station:USF.COMPS:C10:1,2019-02-05T19:35:00Z,27.1690,-82.9260,1019.72,1111122 
COMPS,ioos:station:USF.COMPS:C10:1,2019-02-05T20:05:00Z,27.1690,-82.9260,1019.12,1111122 
COMPS,ioos:station:USF.COMPS:C10:1,2019-02-05T20:35:00Z,27.1690,-82.9260,1018.89,1111122 
COMPS,ioos:station:USF.COMPS:C10:1,2019-02-05T21:05:00Z,27.1690,-82.9260,1018.74,1111122 
COMPS,ioos:station:USF.COMPS:C10:1,2019-02-05T21:35:00Z,27.1690,-82.9260,1018.88,1111122 
COMPS,ioos:station:USF.COMPS:C10:1,2019-02-05T22:05:00Z,27.1690,-82.9260,1019.06,1111122 
COMPS,ioos:station:USF.COMPS:C10:1,2019-02-05T22:35:00Z,27.1690,-82.9260,1018.8,1111122 
COMPS,ioos:station:USF.COMPS:C10:1,2019-02-05T23:05:00Z,27.1690,-82.9260,1018.74,1111122 
COMPS,ioos:station:USF.COMPS:C10:1,2019-02-05T23:35:00Z,27.1690,-82.9260,1019.0,1111122 
COMPS,ioos:station:USF.COMPS:C10:1,2019-02-06T00:05:00Z,27.1690,-82.9260,1019.14,1111122 
COMPS,ioos:station:USF.COMPS:C10:1,2019-02-06T00:35:00Z,27.1690,-82.9260,1019.56,1111122 
COMPS,ioos:station:USF.COMPS:C10:1,2019-02-06T01:05:00Z,27.1690,-82.9260,1019.46,1111122 
COMPS,ioos:station:USF.COMPS:C10:1,2019-02-06T01:35:00Z,27.1690,-82.9260,1019.52,1111122 
COMPS,ioos:station:USF.COMPS:C10:1,2019-02-06T02:05:00Z,27.1690,-82.9260,1019.73,1111122 
COMPS,ioos:station:USF.COMPS:C10:1,2019-02-06T02:35:00Z,27.1690,-82.9260,1019.84,1111122 
COMPS,ioos:station:USF.COMPS:C10:1,2019-02-06T03:05:00Z,27.1690,-82.9260,1020.25,1111122 
COMPS,ioos:station:USF.COMPS:C10:1,2019-02-06T03:35:00Z,27.1690,-82.9260,1020.28,1111122 
COMPS,ioos:station:USF.COMPS:C10:1,2019-02-06T04:05:00Z,27.1690,-82.9260,1020.35,1111122 
COMPS,ioos:station:USF.COMPS:C10:1,2019-02-06T04:35:00Z,27.1690,-82.9260,1020.42,1111122 
COMPS,ioos:station:USF.COMPS:C10:1,2019-02-06T05:05:00Z,27.1690,-82.9260,1020.3,1111122 
COMPS,ioos:station:USF.COMPS:C10:1,2019-02-06T05:35:00Z,27.1690,-82.9260,1020.49,1111122 
COMPS,ioos:station:USF.COMPS:C10:1,2019-02-06T06:05:00Z,27.1690,-82.9260,1020.57,1111122 
COMPS,ioos:station:USF.COMPS:C10:1,2019-02-06T06:35:00Z,27.1690,-82.9260,1020.51,1111122 
COMPS,ioos:station:USF.COMPS:C10:1,2019-02-06T07:05:00Z,27.1690,-82.9260,1020.62,1111122 
COMPS,ioos:station:USF.COMPS:C10:1,2019-02-06T07:35:00Z,27.1690,-82.9260,1020.05,1111122 
COMPS,ioos:station:USF.COMPS:C10:1,2019-02-06T08:05:00Z,27.1690,-82.9260,1019.85,1111122 
COMPS,ioos:station:USF.COMPS:C10:1,2019-02-06T08:35:00Z,27.1690,-82.9260,1019.85,1111122 
COMPS,ioos:station:USF.COMPS:C10:1,2019-02-06T09:05:00Z,27.1690,-82.9260,1019.79,1111122 
COMPS,ioos:station:USF.COMPS:C10:1,2019-02-06T09:35:00Z,27.1690,-82.9260,1019.9,1111122 
COMPS,ioos:station:USF.COMPS:C10:1,2019-02-06T10:05:00Z,27.1690,-82.9260,1020.06,1111122 
COMPS,ioos:station:USF.COMPS:C10:1,2019-02-06T10:35:00Z,27.1690,-82.9260,1020.0,1111122 
COMPS,ioos:station:USF.COMPS:C10:1,2019-02-06T11:05:00Z,27.1690,-82.9260,1020.3,1111122 
COMPS,ioos:station:USF.COMPS:C10:1,2019-02-06T11:35:00Z,27.1690,-82.9260,1020.69,1111122 
COMPS,ioos:station:USF.COMPS:C10:1,2019-02-06T13:05:00Z,27.1690,-82.9260,1021.39,1111122 
COMPS,ioos:station:USF.COMPS:C10:1,2019-02-06T13:35:00Z,27.1690,-82.9260,1021.79,1111122 
COMPS,ioos:station:USF.COMPS:C10:1,2019-02-06T14:05:00Z,27.1690,-82.9260,1022.06,1111122 
COMPS,ioos:station:USF.COMPS:C10:1,2019-02-06T14:35:00Z,27.1690,-82.9260,1022.23,1111122 
COMPS,ioos:station:USF.COMPS:C10:1,2019-02-06T15:05:00Z,27.1690,-82.9260,1022.34,1111122 
COMPS,ioos:station:USF.COMPS:C10:1,2019-02-06T15:35:00Z,27.1690,-82.9260,1022.33,1111122 
COMPS,ioos:station:USF.COMPS:C10:1,2019-02-06T16:05:00Z,27.1690,-82.9260,1022.38,1111122 
COMPS,ioos:station:USF.COMPS:C10:1,2019-02-06T16:35:00Z,27.1690,-82.9260,1022.08,1111122 
COMPS,ioos:station:USF.COMPS:C10:1,2019-02-06T17:05:00Z,27.1690,-82.9260,1021.95,1111122 
COMPS,ioos:station:USF.COMPS:C10:1,2019-02-06T17:35:00Z,27.1690,-82.9260,1021.45,1111122 
COMPS,ioos:station:USF.COMPS:C10:1,2019-02-06T18:05:00Z,27.1690,-82.9260,1021.05,1111122 
COMPS,ioos:station:USF.COMPS:C10:1,2019-02-06T18:35:00Z,27.1690,-82.9260,1020.65,1111122 
COMPS,ioos:station:USF.COMPS:C10:1,2019-02-06T19:05:00Z,27.1690,-82.9260,1020.26,1111122 
COMPS,ioos:station:USF.COMPS:C10:1,2019-02-06T19:35:00Z,27.1690,-82.9260,1019.81,1111122 
COMPS,ioos:station:USF.COMPS:C10:1,2019-02-06T20:05:00Z,27.1690,-82.9260,1019.7,1111122 
COMPS,ioos:station:USF.COMPS:C10:1,2019-02-06T20:35:00Z,27.1690,-82.9260,1019.93,1111122 
COMPS,ioos:station:USF.COMPS:C10:1,2019-02-06T21:05:00Z,27.1690,-82.9260,1019.66,1111122 
COMPS,ioos:station:USF.COMPS:C10:1,2019-02-06T21:35:00Z,27.1690,-82.9260,1019.42,1111122 
COMPS,ioos:station:USF.COMPS:C10:1,2019-02-06T22:05:00Z,27.1690,-82.9260,1019.58,1111122 
COMPS,ioos:station:USF.COMPS:C10:1,2019-02-06T22:35:00Z,27.1690,-82.9260,1019.75,1111122 
COMPS,ioos:station:USF.COMPS:C10:1,2019-02-06T23:05:00Z,27.1690,-82.9260,1020.08,1111122 
COMPS,ioos:station:USF.COMPS:C10:1,2019-02-06T23:35:00Z,27.1690,-82.9260,1020.25,1111122 
COMPS,ioos:station:USF.COMPS:C10:1,2019-02-07T00:05:00Z,27.1690,-82.9260,1020.4,1111122 
COMPS,ioos:station:USF.COMPS:C10:1,2019-02-07T00:35:00Z,27.1690,-82.9260,1020.77,1111122 
COMPS,ioos:station:USF.COMPS:C10:1,2019-02-07T01:05:00Z,27.1690,-82.9260,1021.23,1111122 
COMPS,ioos:station:USF.COMPS:C10:1,2019-02-07T01:35:00Z,27.1690,-82.9260,1021.38,1111122 
COMPS,ioos:station:USF.COMPS:C10:1,2019-02-07T02:05:00Z,27.1690,-82.9260,1021.4,1111122 
COMPS,ioos:station:USF.COMPS:C10:1,2019-02-07T02:35:00Z,27.1690,-82.9260,1021.19,1111122 
COMPS,ioos:station:USF.COMPS:C10:1,2019-02-07T03:05:00Z,27.1690,-82.9260,1021.17,1111122 
COMPS,ioos:station:USF.COMPS:C10:1,2019-02-07T03:35:00Z,27.1690,-82.9260,1021.41,1111122 